Jackson, WY

6:14 AM MST on December 08, 2019 (GMT -0700)
Jackson Hole

Weather History for KJAC - October, 2019

Change the Weather History Date:

Saturday, October 19, 2019

  Actual Average Record
Temperature  
Mean Temperature 32 °F -  
Max Temperature 39 °F 55 °F 71 °F (2003)
Min Temperature 28 °F 20 °F 9 °F (1976)
Degree Days  
Heating Degree Days 32    
Moisture  
Dew Point 28 °F    
Average Humidity 85    
Maximum Humidity 100    
Minimum Humidity 50    
Precipitation  
Precipitation 0.21 in - - ()
Sea Level Pressure  
Sea Level Pressure 29.74 in    
Wind  
Wind Speed 11 mph ()    
Max Wind Speed 23 mph    
Max Gust Speed 29 mph    
Visibility 3.6 miles    
Events Snow    
Averages and records for this station are not official NWS values.
T = Trace of Precipitation, MM = Missing Value Source: Averaged Metar Reports

Daily Weather History Graph

Daily Weather History Graph

Search for Another Location

Airport or City:

Astronomy

Oct. 19, 2019 Rise Set
Actual Time 7:41 AM MDT 6:33 PM MDT
Civil Twilight 7:12 AM MDT 7:02 PM MDT
Nautical Twilight 6:39 AM MDT 7:35 PM MDT
Astronomical Twilight 6:06 AM MDT 8:08 PM MDT
Moon 10:37 PM MDT (10/19) 1:25 PM MDT (10/19)
Length of Visible Light 11h 49m
Length of Day
10h 51m
Waning Gibbous, 69% of the Moon is Illuminated
Oct 19
Waning Gibbous
Oct 21
Last Quarter
Oct 27
New
Nov 4
First Quarter
Nov 12
Full

Hourly Weather History & Observations

Time (MDT) Temp. Windchill Dew Point Humidity Pressure Visibility Wind Dir Wind Speed Gust Speed Precip Events Conditions
12:56 AM 34.0 °F 26.6 °F 19.0 °F 54% 29.98 in 9.0 mi SSW 9.2 mph - 0.00 in Snow Light Snow
1:56 AM 30.9 °F 24.3 °F 21.0 °F 67% 29.99 in 9.0 mi SW 6.9 mph - 0.00 in Snow Light Snow
2:56 AM 34.0 °F 25.5 °F 19.9 °F 56% 29.97 in 9.0 mi South 11.5 mph - 0.00 in Snow Light Snow
3:56 AM 35.1 °F 25.9 °F 18.0 °F 50% 29.97 in 9.0 mi South 13.8 mph 20.7 mph 0.00 in Snow Light Snow
4:56 AM 35.1 °F 26.9 °F 19.9 °F 54% 29.96 in 9.0 mi South 11.5 mph - 0.00 in Snow Light Snow
5:56 AM 33.1 °F 27.7 °F 21.0 °F 61% 29.98 in 9.0 mi SSW 5.8 mph - 0.00 in Snow Light Snow
7:56 AM 32.0 °F 23.6 °F 21.9 °F 66% 29.95 in 9.0 mi South 10.4 mph - 0.00 in Snow Light Snow
8:56 AM 35.1 °F 26.4 °F 21.9 °F 59% 29.91 in 10.0 mi South 12.7 mph - 0.00 in   Overcast
9:56 AM 37.9 °F 28.9 °F 21.9 °F 53% 29.90 in 10.0 mi SSW 16.1 mph - N/A   Scattered Clouds
10:56 AM 37.9 °F 29.6 °F 23.0 °F 55% 29.88 in 10.0 mi South 13.8 mph - N/A   Overcast
11:56 AM 37.0 °F 27.7 °F 26.1 °F 65% 29.86 in 4.0 mi SSW 16.1 mph 26.5 mph N/A   Haze
12:04 PM 35.6 °F 26.2 °F 28.4 °F 75% 29.82 in 2.5 mi SSW 15.0 mph 21.9 mph N/A   Haze
12:15 PM 33.8 °F 25.3 °F 28.4 °F 81% 29.82 in 1.8 mi SW 11.5 mph 21.9 mph N/A   Haze
12:27 PM 33.8 °F 25.8 °F 30.2 °F 87% 29.81 in 1.0 mi SW 10.4 mph - N/A   Overcast
12:40 PM 33.8 °F 25.8 °F 30.2 °F 87% 29.79 in 1.2 mi SW 10.4 mph - N/A   Overcast
12:44 PM 33.8 °F 25.8 °F 30.2 °F 87% 29.79 in 1.0 mi SW 10.4 mph - N/A   Overcast
12:56 PM 34.0 °F 26.6 °F 30.9 °F 89% 29.83 in 1.5 mi WSW 9.2 mph - N/A   Overcast
1:20 PM 33.8 °F 27.0 °F 30.2 °F 87% 29.76 in 1.0 mi WSW 8.1 mph - 0.01 in   Overcast
1:24 PM 33.8 °F 27.7 °F 30.2 °F 87% 29.76 in 1.2 mi SW 6.9 mph - 0.01 in   Overcast
1:38 PM 33.8 °F 25.3 °F 30.2 °F 87% 29.74 in 0.8 mi South 11.5 mph - 0.02 in   Overcast
1:46 PM 33.8 °F 25.8 °F 30.2 °F 87% 29.74 in 0.8 mi SSW 10.4 mph - 0.02 in   Overcast
1:53 PM 33.8 °F 25.3 °F 30.2 °F 87% 29.73 in 1.0 mi SSW 11.5 mph - 0.03 in   Overcast
1:56 PM 33.1 °F 24.9 °F 30.9 °F 92% 29.80 in 1.0 mi SSW 10.4 mph - 0.03 in   Overcast
2:14 PM 33.8 °F 27.7 °F 30.2 °F 87% 29.72 in 0.8 mi SSW 6.9 mph - 0.01 in   Overcast
2:21 PM 33.8 °F 28.6 °F 30.2 °F 87% 29.72 in 0.8 mi SSW 5.8 mph - 0.02 in   Overcast
2:32 PM 33.8 °F 25.3 °F 30.2 °F 87% 29.71 in 1.0 mi SSW 11.5 mph - 0.02 in   Overcast
2:41 PM 33.8 °F 25.3 °F 30.2 °F 87% 29.71 in 2.0 mi SSW 11.5 mph - 0.02 in   Overcast
2:52 PM 33.8 °F 23.9 °F 32.0 °F 93% 29.70 in 1.2 mi SSW 15.0 mph - 0.03 in   Overcast
2:56 PM 33.1 °F 24.4 °F 32.0 °F 96% 29.75 in 1.8 mi South 11.5 mph 19.6 mph 0.03 in   Overcast
2:59 PM 33.8 °F 24.8 °F 32.0 °F 93% 29.69 in 2.5 mi South 12.7 mph 19.6 mph N/A   Overcast
3:06 PM 33.8 °F 26.4 °F 33.8 °F 100% 29.69 in 5.0 mi South 9.2 mph - N/A   Overcast
3:27 PM 33.8 °F 25.8 °F 32.0 °F 93% 29.69 in 2.0 mi SSW 10.4 mph 19.6 mph 0.01 in   Overcast
3:41 PM 33.8 °F 25.3 °F 30.2 °F 87% 29.69 in 1.5 mi SSW 11.5 mph 19.6 mph 0.01 in   Overcast
3:49 PM 33.8 °F 24.8 °F 32.0 °F 93% 29.69 in 2.0 mi SSW 12.7 mph - 0.02 in   Overcast
3:56 PM 34.0 °F 24.6 °F 32.0 °F 92% 29.73 in 2.5 mi SSW 13.8 mph - 0.02 in   Overcast
4:03 PM 33.8 °F 23.2 °F 32.0 °F 93% 29.68 in 3.0 mi South 17.3 mph - N/A   Overcast
4:38 PM 33.8 °F 25.3 °F 32.0 °F 93% 29.66 in 6.0 mi SSW 11.5 mph - 0.01 in   Overcast
4:56 PM 34.0 °F 26.6 °F 32.0 °F 92% 29.68 in 9.0 mi SSW 9.2 mph - 0.01 in   Overcast
5:25 PM 33.8 °F 29.6 °F 32.0 °F 93% 29.63 in 10.0 mi WSW 4.6 mph - N/A   Overcast
5:53 PM 33.8 °F 27.7 °F 30.2 °F 87% 29.62 in 2.5 mi SSW 6.9 mph - 0.00 in Snow Snow
5:56 PM 33.1 °F 26.1 °F 30.9 °F 92% 29.67 in 2.5 mi SSW 8.1 mph - 0.00 in Snow Snow
5:58 PM 33.8 °F 26.4 °F 30.2 °F 87% 29.61 in 0.8 mi SSW 9.2 mph - 0.00 in Snow Snow
6:02 PM 33.8 °F 27.0 °F 30.2 °F 87% 29.61 in 0.5 mi SSW 8.1 mph - 0.01 in Snow Snow
6:08 PM 33.8 °F 27.7 °F 30.2 °F 87% 29.61 in 0.8 mi SW 6.9 mph - 0.02 in Snow Snow
6:24 PM 33.8 °F 26.4 °F 30.2 °F 87% 29.60 in 0.5 mi SSW 9.2 mph - 0.04 in Snow Snow
6:39 PM 32.0 °F 24.2 °F 30.2 °F 93% 29.59 in 0.5 mi SSW 9.2 mph - 0.04 in Snow Snow
6:56 PM 32.0 °F 23.0 °F 30.9 °F 96% 29.66 in 0.8 mi SW 11.5 mph - 0.06 in Snow Snow
7:04 PM 32.0 °F 21.6 °F 30.2 °F 93% 29.61 in 0.8 mi SW 15.0 mph - 0.00 in Snow Snow
7:09 PM 32.0 °F 20.1 °F 30.2 °F 93% 29.61 in 1.2 mi South 19.6 mph 28.8 mph 0.01 in Snow Snow
7:14 PM 32.0 °F 22.5 °F 30.2 °F 93% 29.60 in 4.0 mi South 12.7 mph 28.8 mph 0.01 in Snow Snow
7:25 PM 32.0 °F 20.5 °F 30.2 °F 93% 29.62 in 9.0 mi SSW 18.4 mph 26.5 mph 0.03 in Snow Snow
7:56 PM 32.0 °F 20.8 °F 30.0 °F 92% 29.71 in 6.0 mi SW 17.3 mph - 0.05 in   Overcast
8:24 PM 30.2 °F 18.9 °F 26.6 °F 86% 29.67 in 9.0 mi SSW 16.1 mph 23.0 mph N/A   Overcast
8:56 PM 30.0 °F 20.0 °F 26.1 °F 85% 29.73 in 8.0 mi SSW 12.7 mph - N/A   Overcast
9:25 PM 28.4 °F 16.2 °F 26.6 °F 93% 29.67 in 1.8 mi SSW 17.3 mph 20.7 mph N/A   Overcast
9:36 PM 28.4 °F 15.8 °F 26.6 °F 93% 29.66 in 3.0 mi South 18.4 mph - 0.01 in   Overcast
9:56 PM 28.9 °F 16.9 °F 27.0 °F 92% 29.71 in 2.5 mi South 17.3 mph - 0.01 in   Overcast
10:05 PM 28.4 °F 14.4 °F 26.6 °F 93% 29.67 in 4.0 mi South 23.0 mph 27.6 mph N/A   Overcast
10:56 PM 28.9 °F 16.5 °F 26.1 °F 89% 29.74 in 3.0 mi South 18.4 mph 26.5 mph N/A   Overcast
11:04 PM 28.4 °F 15.1 °F 26.6 °F 93% 29.69 in 2.0 mi South 20.7 mph - N/A   Overcast
11:09 PM 28.4 °F 15.1 °F 26.6 °F 93% 29.70 in 1.2 mi South 20.7 mph - N/A   Overcast
11:20 PM 28.4 °F 15.4 °F 26.6 °F 93% 29.70 in 1.5 mi South 19.6 mph - N/A   Overcast
11:30 PM 28.4 °F 16.2 °F 26.6 °F 93% 29.70 in 2.0 mi South 17.3 mph - N/A   Overcast
11:35 PM 28.4 °F 15.4 °F 26.6 °F 93% 29.70 in 1.8 mi South 19.6 mph - N/A   Overcast
11:46 PM 28.4 °F 17.0 °F 26.6 °F 93% 29.71 in 1.0 mi South 15.0 mph 24.2 mph N/A   Overcast
11:56 PM 28.0 °F 17.0 °F 26.1 °F 92% 29.77 in 1.2 mi South 13.8 mph - N/A   Overcast